Regional Weather Roundup
Issued by NWS Charleston, SC

Current Version | Previous Version | Graphics & Text | Print | Product List | Glossary On
Versions: 1 2 3 4 5 6 7 8 9 10 11 12 13 14 15 16 17 18 19 20 21 22 23 24 25 26 27 28 29 30 31 32 33 34 35 36 37 38 39 40 41 42 43 44 45 46 47 48 49 50
000 ASUS42 KCHS 240327 RWRCHS REGIONAL WEATHER ROUNDUP NATIONAL WEATHER SERVICE CHARLESTON SC 1100 PM EDT SUN APR 23 2017 NOTE: "FAIR" INDICATES FEW OR NO CLOUDS BELOW 12,000 FEET WITH NO SIGNIFICANT WEATHER AND/OR OBSTRUCTIONS TO VISIBILITY. NOT ALL STATIONS ARE QUALITY CONTROLLED. USE DATA WITH CAUTION... ESPECIALLY DEWPOINT OBSERVATIONS. SCZ027-030-031-034>040-042>050-240400- ...SOUTHEAST SOUTH CAROLINA... CITY SKY/WX TMP DP RH WIND PRES REMARKS N CHARLESTON PTCLDY 73 67 81 SE14 29.80R WATERFRONT PRK N/A 74 71 90 SE14 29.78R JOHNS ISLAND FAIR 73 70 88 SE8G15 29.80R PINOPOLIS N/A 72 70 94 VRB3 29.72S MONCKS CORNER FAIR 70 66 88 CALM 29.81R SUMMERVILLE MOCLDY 73 68 83 SE6 29.81R BEAUFORT MCAS CLOUDY 76 73 91 SE7 29.77R BEAUFORT ARPT CLOUDY 73 70 88 S7 29.77S HILTON HEAD IS CLEAR 75 72 88 S8G15 29.79R WALTERBORO CLOUDY 72 68 88 SE9 29.78F ALLENDALE RAIN 70 66 88 W8G16 29.77R ...SOUTHERN MIDLANDS AND PEE DEE... CITY SKY/WX TMP DP RH WIND PRES REMARKS GEORGETOWN MOCLDY 70 68 94 SE8 29.84S KINGSTREE CLOUDY 66 64 94 NE3 29.84R ORANGEBURG CLOUDY 70 67 90 E5 29.77F BARNWELL RAIN 68 68 100 CALM 29.78F AIKEN HVY RAIN 59 59 100 N9 29.82S MANNING MOCLDY 68 64 88 E21G29 29.81S COLUMBIA TSTM 63 61 93 N7 29.79F FOG SUMTER CLOUDY 63 61 94 E13 29.80S FLORENCE CLOUDY 60 60 100 E14 29.86S MYRTLE BEACH CLOUDY 68 65 90 E17 29.86S N MYRTLE BEACH LGT RAIN 65 64 97 NE10 29.86F $$ GAZ063-065-086>088-099>101-113>116-118-119-134>141-150-240400- ...SOUTHEAST GEORGIA... CITY SKY/WX TMP DP RH WIND PRES REMARKS SAVANNAH ARPT PTCLDY 75 66 73 S18 29.75S HUNTER AAF PTCLDY 75 73 94 SE14G21 29.74R FORT STEWART TSTM 72 68 88 S12G23 29.74R FOG STATESBORO LGT RAIN 69 69 100 CALM 29.77F SYLVANIA RAIN 70 66 88 CALM 29.79R CLAXTON MOCLDY N/A N/A N/A CALM 29.76S ...CSRA...CENTRAL AND FAR SOUTHEAST GEORGIA... CITY SKY/WX TMP DP RH WIND PRES REMARKS THOMSON LGT RAIN 59 58 96 E12 29.84F AUGUSTA-BUSH LGT RAIN 66 63 90 N8 29.77R AUGUSTA-DANIEL CLOUDY 63 59 87 N9 29.79S SWAINSBORO CLOUDY 68 68 100 CALM 29.78S VIDALIA CLOUDY 68 66 94 CALM 29.76S EASTMAN CLOUDY 64 64 100 CALM 29.81R HAZLEHURST CLOUDY 70 68 94 CALM 29.77R ALMA CLOUDY 74 63 68 NW12 29.76R WAYCROSS MOCLDY 74 70 88 SW5 29.76S JESUP FAIR 73 66 78 S6 29.76F BAXLEY FAIR 70 70 100 CALM 29.76R BRUNSWICK CLOUDY 68 68 100 S6 29.78F SAINT SIMONS LGT RAIN 72 67 84 S8 29.78F $$ SCZ027-028-034-036>038-045-046-048>050-GAZ119-141-240400- ...LAKE AND SUPPLEMENTAL COASTAL OBSERVATIONS... STATION/POSITION TIME TEMP WIND PRES WAVE SWELL AIR SEA DIR/SP/G HT/PER HT/PER/DIR (UTC) (F) (DEG/KT/KT) (MB) (FT/S) (FT/S/D) WINYAH BAY 0245 72 120/ 8 1010.0S LAKE MURRAY 0230 60 CALM / 4 1009.5S ACE BASIN NERRS 0230 74 130/ 4 1008.0S FORT PULASKI 0300 74 75 170/ 9/ 15 1008.4 SAPELO ISLAND 0230 74 170/ 15 1008.0S $$ ANZ835-935-AMZ111-154-330-350-352-354-370-450-454-472-240400- ...C-MAN AND BUOY OBSERVATIONS... STATION/POSITION TIME TEMP WIND PRES WAVE SWELL AIR SEA DIR/SP/G HT/PER HT/PER/DIR (UTC) (F) (DEG/KT/KT) (MB) (FT/S) (FT/S/D) BUOY 41004 0310 75 74 140/ 17/ 21 1009.3 BUOY 41008 0250 74 72 160/ 16/ 19 1008.2R 3/12 2/100/12 FOLLY BEACH CMAN 0300 74 140/ 15/ 17 1009.6S CAPERS NEARSHORE 0308 74 73 150/ 12/ 16 1009.2R FRIPP NEARSHORE 0308 74 74 160/ 14/ 19 1008.2R STATION/POSITION TIME TEMP WIND PRES WAVE SWELL AIR SEA DIR/SP/G HT/PER HT/PER/DIR (UTC) (F) (DEG/KT/KT) (MB) (FT/S) (FT/S/D) 5E ST. MARYS GA 0300 72 N/A 4/ 5 2/100/13 FRYING PAN BUOY 0310 75 74 160/ 12/ 14 1011.0 BUOY 41025 0250 70 77 10/ 6/ 10 1014.1R 8/11 8/ 60/11 CAPE LOOKOUT NC 0300 65 30/ 17/ 21 1013.1F BUOY 41002 0250 73 75 140/ 17/ 21 1013.7F 5/11 2/ 30/11 BUOY 41010 0310 73 79 120/ 23/ 29 1009.0 ST AUGUSTINE FL 0300 74 76 160/ 21/ 23 1009.5F $$

USA.gov is the U.S. government's official web portal to all federal, state and local government web resources and services.